Regional Weather Roundup
Issued by NWS Cleveland, OH

Home | Current Version | Previous Version | Graphics & Text | Print | Product List | Glossary On
Versions: 1 2 3 4 5 6 7 8 9 10 11 12 13 14 15 16 17 18 19 20 21 22 23 24 25 26 27 28 29 30 31 32 33 34 35 36 37 38 39 40 41 42 43 44 45 46 47 48 49 50
000
ASUS41 KCLE 260110
RWRCLE
OHIO REGIONAL WEATHER ROUNDUP
NATIONAL WEATHER SERVICE CLEVELAND, OH
800 PM EST THU DEC 25 2014

NOTE: "FAIR" INDICATES FEW OR NO CLOUDS BELOW 12,000 FEET WITH NO
SIGNIFICANT WEATHER AND/OR OBSTRUCTIONS TO VISIBILITY.

OHZ001>008-015>018-024>027-034-035-043-044-260200-
   NORTHWEST OHIO

CITY           SKY/WX    TMP DP  RH WIND       PRES   REMARKS
DEFIANCE       PTCLDY    35  30  82 S7        30.14R WCI  29
FINDLAY        CLOUDY    37  31  78 SW8       30.16R
TOLEDO EXPRESS CLOUDY    37  29  72 SW9       30.15R
TOLEDO EXEC    CLOUDY    37  30  75 SW12      30.16R
LIMA           CLOUDY    38  31  76 SW10      30.16R
$$

OHZ009>014-019>023-028>033-038-089-260200-
   NORTHEAST OHIO

CITY           SKY/WX    TMP DP  RH WIND       PRES   REMARKS
CLE-HOPKINS    CLOUDY    38  30  73 SW7       30.18R
CLE-LAKEFRONT  CLOUDY    39  30  70 SW10      30.16R
CUY CO. ARPT   CLOUDY    39  32  75 W12       30.16R
LORAIN-ELYRIA  CLOUDY    37  31  78 SW12      30.17R
ASHTABULA      CLOUDY    37  29  72 SW9       30.15R
AKRON-CANTON   CLOUDY    38  29  70 SW8       30.17R
WOOSTER        CLOUDY    37  30  75 SW10      30.17S
MANSFIELD      CLOUDY    36  30  79 SW9G17    30.16R
YOUNGSTOWN     CLOUDY    37  29  72 SW10      30.15R
$$

OHZ042-051>053-060>062-070>072-077>081-260200-
  SOUTHWEST OHIO

CITY           SKY/WX    TMP DP  RH WIND       PRES   REMARKS
CINC-COVINGTON PTCLDY    35  28  75 S5        30.19S
CINC-LUNKEN    CLEAR     37  32  82 SW3       30.23R
HAMILTON       CLEAR     32  29  88 S3        30.21R
DAYTON         CLEAR     37  30  75 S6        30.19R
WRIGHT-PAT AFB PTCLDY    35  29  80 S5        30.19S
DAYTON GENERAL CLEAR     36  30  79 S6        30.18S
WILMINGTON     PTCLDY    34  29  82 S5        30.20R WCI  30
$$

OHZ036-037-039>041-045>050-054>059-063>069-073>076-082>088-260200-
  CENTRAL AND SOUTHEAST OHIO

CITY           SKY/WX    TMP DP  RH WIND       PRES   REMARKS
COLUMBUS       CLOUDY    39  31  72 SW3       30.21R
OSU AIRPORT    CLOUDY    39  30  70 SW9       30.20R
BOLTON FIELD   CLOUDY    38  32  80 MISG      30.21R
RICKENBACK AFB CLOUDY    38  31  74 SW9       30.22R
NEWARK         CLOUDY    40  31  70 SW8       30.21R
MARION         CLOUDY    37  30  75 S8        30.18R
LANCASTER      CLOUDY    40  31  70 SW7       30.23R
ZANESVILLE     CLOUDY    38  29  70 SW5       30.21R
NEW PHILLY     CLOUDY    40  29  64 SW7       30.21R
$$


USA.gov is the U.S. government's official web portal to all federal, state and local government web resources and services.